Temperature
15 15 16 16 16 16 16 16 16 15 14 13 13 13 13 12 12 12 13 13 13 13 13 12 13 12 12 13 13 13 13 13 13 14 14 14 14 14
15 15 15 16 16 16 16 16 16 16 16 14 14 13 13 12 12 12 12 12 13 13 13 13 12 13 13 13 13 13 13 13 13 14 13 13 13 13
15 15 15 15 15 15 15 16 16 16 16 15 14 13 12 12 12 12 12 12 12 13 13 13 12 13 14 14 14 13 13 14 13 13 13 13 13 13
16 16 15 15 15 15 15 15 15 15 15 16 15 13 12 12 11 11 11 12 12 12 13 13 13 13 13 14 14 13 13 13 13 13 13 13 13 12
16 15 15 14 15 15 15 15 15 15 15 15 16 14 13 12 11 11 11 11 11 12 12 12 12 13 13 13 12 12 13 13 13 13 13 13 13 13
15 15 15 15 14 14 15 15 15 15 15 14 15 15 13 12 12 11 11 11 11 11 11 12 12 12 11 11 10 10 10 11 12 12 12 12 11 10
15 15 15 15 14 14 15 15 15 15 15 14 15 15 14 14 14 12 11 11 11 11 11 11 11 11 11 10 10 9 9 9 10 10 8 9 9 8
15 15 15 15 15 15 15 15 15 15 15 14 15 15 16 15 14 13 11 11 11 11 11 11 11 10 10 10 9 9 9 9 10 9 9 9 9 9
15 15 15 15 15 15 15 15 15 15 16 16 16 16 16 16 15 14 12 12 11 11 11 10 10 10 10 9 9 9 9 9 10 9 9 9 9 9
15 15 15 15 15 15 16 16 15 15 15 15 15 16 16 16 15 14 13 12 11 10 10 9 10 10 9 9 9 9 9 9 10 9 9 10 9 9
14 14 15 14 14 15 15 15 15 15 15 14 14 14 15 15 14 14 12 11 11 10 10 9 10 10 9 9 9 9 9 9 10 9 9 10 9 10
14 14 15 14 14 14 14 14 14 14 14 14 14 14 14 15 14 14 13 13 12 11 10 10 11 10 9 10 9 9 9 9 9 9 9 9 9 9
14 13 13 13 13 13 13 13 14 14 14 14 14 14 14 14 14 14 14 13 13 13 12 11 11 11 9 10 10 10 10 9 9 9 9 9 9 9
13 13 13 13 13 13 13 12 12 13 13 13 14 14 15 15 15 14 14 13 13 12 11 11 12 11 10 10 10 10 10 10 10 10 10 9 9 9
12 12 12 12 12 12 12 12 11 12 12 13 13 14 14 15 15 14 13 13 12 11 11 11 11 10 10 10 10 10 10 10 10 10 9 10 9 9
12 12 12 12 12 12 12 11 11 11 11 11 12 13 13 14 14 13 13 12 12 11 11 11 11 10 9 9 10 10 10 10 10 10 10 9 9 9
12 12 12 12 12 11 11 10 10 11 11 11 11 11 13 13 13 13 12 12 12 12 12 11 11 10 10 9 9 9 9 9 9 9 9 9 10 10
11 11 11 11 11 11 11 10 10 10 11 11 11 11 11 12 12 12 12 12 12 12 11 11 11 10 10 10 9 9 9 9 9 9 8 9 9 9
10 10 10 10 10 10 10 10 10 10 10 10 10 11 11 11 11 11 12 12 12 12 11 11 10 10 9 10 10 10 10 9 9 9 9 9 9 9
9 9 9 10 10 10 10 10 10 10 10 10 10 10 10 11 11 11 11 11 11 11 11 10 10 10 9 10 10 9 9 9 9 9 9 9 9 9
9 9 9 9 9 9 9 9 10 10 10 10 10 10 10 11 11 10 10 10 10 11 11 11 11 10 9 9 9 10 9 9 9 9 9 8 8 9
8 9 9 9 9 9 9 9 9 9 9 9 9 10 10 10 10 10 10 10 11 11 11 11 10 9 9 9 9 9 9 8 8 8 8 8 8 8
8 8 8 9 9 9 9 9 9 9 9 9 9 9 10 10 10 10 10 10 10 10 10 10 9 9 9 9 9 8 8 8 7 7 7 7 7 7
Wind_Speed
7 7 5 5 6 6 9 11 8 5 5 4 3 4 8 9 9 9 10 10 10 9 10 12 13 13 13 14 17 20 22 25 25 23 16 15 15 16
6 7 6 5 5 6 8 9 6 5 5 4 3 4 7 8 9 9 9 9 8 8 9 9 9 10 10 12 14 14 14 16 18 21 20 24 21 21
8 8 8 7 8 7 7 7 6 5 4 3 2 4 4 6 8 8 7 7 7 8 8 7 9 9 9 11 12 13 13 14 15 17 18 21 21 20
9 8 8 8 9 8 7 8 7 5 5 4 3 4 4 6 6 5 5 5 6 7 6 6 9 11 10 11 12 12 13 14 14 14 19 20 20 20
9 9 10 10 8 8 7 8 7 5 4 5 5 4 3 4 4 3 3 1 4 6 5 4 5 8 9 10 12 13 15 16 16 15 18 19 16 18
8 10 10 10 10 10 10 9 9 8 7 7 6 7 4 5 5 3 3 1 0 4 3 4 4 3 5 7 10 13 15 18 21 22 21 19 16 14
7 8 10 12 14 13 10 9 9 9 9 7 6 6 5 6 6 4 4 2 1 1 2 3 4 4 3 5 8 11 13 14 17 19 19 18 16 13
8 8 8 11 12 14 15 15 15 14 12 8 6 8 10 8 6 5 4 3 2 2 3 0 1 1 1 3 7 9 11 11 13 13 12 13 12 10
8 7 5 4 5 8 13 16 17 19 19 13 10 10 10 13 11 8 6 4 4 4 4 1 1 1 2 4 8 9 10 10 10 9 8 8 7 6
7 7 5 4 5 7 8 8 8 9 10 8 9 11 9 12 13 10 8 5 4 3 4 3 3 2 2 5 9 10 10 9 8 7 7 6 6 5
6 6 8 7 8 9 7 7 7 7 8 8 7 10 13 17 16 10 8 7 3 3 4 4 3 3 0 1 9 11 11 10 9 7 7 6 4 3
4 5 8 10 13 14 10 8 9 10 9 7 9 10 11 17 22 15 12 9 5 4 7 6 4 4 2 3 5 10 11 11 10 9 9 8 7 5
5 5 6 10 12 11 9 7 8 7 8 8 5 5 6 9 10 10 11 10 8 5 8 8 5 4 3 2 2 5 9 8 9 10 11 9 8 7
5 4 4 6 8 9 8 8 8 6 4 4 4 5 6 8 9 9 12 12 12 7 15 12 6 6 5 3 3 3 5 8 8 7 9 10 10 11
4 5 6 6 6 6 7 9 8 6 6 6 7 7 6 6 6 5 4 5 4 4 14 15 7 6 5 5 4 4 4 5 10 7 8 10 11 10
4 4 5 3 2 3 4 4 4 5 6 5 5 4 5 6 5 5 4 4 3 2 4 13 12 8 5 5 5 4 5 4 4 5 6 6 11 14
6 3 2 2 2 1 2 3 4 5 6 5 3 3 4 6 5 4 4 4 5 5 3 1 5 8 5 6 6 6 5 4 5 4 4 5 6 13
4 2 3 4 5 5 5 4 4 4 3 4 4 3 3 4 4 3 3 4 5 5 5 4 3 2 1 4 6 6 5 5 5 6 6 5 6 9
3 4 5 6 6 6 5 5 5 5 4 3 3 3 3 4 5 4 3 3 4 5 4 4 4 5 5 5 5 7 6 5 4 4 6 6 6 6
3 4 5 6 6 6 6 6 5 5 5 5 5 5 5 5 5 5 5 5 4 4 4 3 4 6 8 6 3 4 7 6 5 4 4 4 5 6
5 4 5 5 6 6 6 6 5 6 5 4 4 5 6 6 5 5 5 6 6 5 5 5 7 7 3 2 1 3 4 10 11 6 4 2 2 2
6 6 6 6 6 6 6 6 5 5 6 6 6 6 6 5 5 6 6 6 6 5 4 3 3 4 4 6 6 4 3 3 7 11 10 11 6 5
5 5 5 5 5 5 5 5 6 6 6 5 5 5 5 4 4 4 4 4 4 4 4 3 3 4 4 6 5 4 4 2 2 2 5 13 19 18
Wind_Direction
205 191 191 199 187 170 163 167 152 158 196 178 150 156 147 124 101 78 60 53 49 47 50 55 63 63 50 46 49 55 63 65 66 57 62 84 99 108
216 212 201 186 187 177 173 179 158 138 167 172 170 139 147 131 114 91 72 58 54 53 53 49 63 82 67 57 53 50 62 81 84 78 68 69 70 80
218 211 211 178 185 190 178 180 164 136 124 147 123 124 130 142 119 107 89 70 60 59 61 55 55 71 74 67 57 54 67 81 88 96 99 92 90 86
214 203 214 191 186 192 184 186 170 147 127 131 135 147 155 153 140 130 107 88 73 69 65 60 51 60 67 69 63 59 69 82 88 94 96 96 104 106
200 196 213 202 185 184 191 187 179 151 124 149 147 155 140 149 134 104 91 87 101 85 68 66 56 58 66 73 78 74 73 76 78 82 90 94 90 96
200 200 210 208 198 189 192 183 168 152 141 150 146 161 159 155 147 144 153 202 65 76 68 58 58 64 89 92 97 95 89 83 76 71 74 86 93 100
206 205 210 211 207 192 187 172 153 143 143 147 152 157 171 168 173 171 163 164 97 116 31 19 33 26 62 105 113 110 102 94 87 82 78 80 85 94
218 222 218 219 213 197 187 177 169 158 154 162 170 180 187 179 164 169 147 138 181 190 127 73 59 38 10 121 137 132 122 114 105 101 100 94 88 93
218 205 178 185 180 192 190 181 179 175 172 170 175 186 185 189 172 169 170 159 178 169 124 140 201 164 212 201 166 154 145 138 132 131 130 119 122 137
198 174 168 156 127 117 130 156 169 177 179 168 178 190 190 178 178 170 160 139 85 110 135 162 184 165 182 222 193 173 163 156 153 158 156 150 164 166
188 181 160 166 181 154 135 144 166 181 184 172 186 192 172 168 161 139 144 155 146 178 191 158 157 117 119 247 225 198 185 180 178 184 184 180 186 182
165 194 180 176 176 170 175 176 190 197 185 178 180 192 177 174 176 175 169 171 152 182 199 175 157 132 183 248 231 221 204 203 201 201 199 195 196 189
176 190 196 181 162 159 164 182 196 188 186 194 188 152 163 173 185 186 176 175 170 190 186 161 154 153 171 202 237 217 209 210 212 214 215 214 210 210
193 193 199 178 151 143 147 164 168 161 176 189 195 177 180 186 188 188 184 186 186 177 177 170 153 166 165 177 213 212 212 218 212 214 219 224 227 231
188 188 189 201 184 171 171 172 167 172 189 198 201 197 189 179 151 142 133 151 161 171 173 180 158 160 167 181 189 192 195 214 206 205 211 216 220 218
137 136 135 134 162 180 179 187 192 200 193 199 213 185 134 140 158 149 140 142 168 235 205 197 181 157 173 205 187 196 209 206 198 201 201 223 236 235
124 99 99 129 172 218 253 218 209 210 205 179 169 173 147 150 156 147 133 141 172 186 196 172 171 180 174 176 200 210 203 220 217 184 180 230 243 231
137 150 179 194 207 218 224 221 213 213 205 182 152 150 139 141 154 146 139 157 175 185 184 174 148 104 33 250 205 193 202 213 206 190 192 203 245 236
161 190 202 208 211 216 223 219 213 209 201 180 164 156 161 169 191 189 161 157 170 181 181 164 155 154 195 248 257 216 201 210 191 197 199 202 222 231
206 204 212 216 222 221 222 223 214 201 199 197 183 182 174 178 190 190 180 174 173 172 182 178 178 181 201 220 233 260 222 200 196 216 217 215 242 271
224 223 217 213 217 217 216 218 216 209 200 200 191 180 185 180 181 184 188 192 185 185 204 213 213 196 155 110 215 277 264 236 226 206 197 186 249 302
219 225 221 219 219 214 210 204 204 204 195 199 204 192 187 190 187 183 191 195 199 197 207 212 163 155 168 203 229 234 268 282 244 238 230 225 201 228
230 228 231 229 227 220 207 203 204 208 199 187 183 175 166 161 159 167 191 206 200 194 207 210 181 179 203 213 219 216 223 243 282 288 259 243 244 250
Height
1536 1538 1539 1540 1542 1544 1545 1547 1550 1551 1554 1555 1556 1556 1557 1559 1558 1557 1556 1555 1554 1553 1552 1552 1551 1550 1549 1548 1547 1546 1544 1543 1542 1542 1542 1542 1542 1542
1531 1533 1535 1536 1538 1540 1542 1544 1546 1549 1550 1552 1552 1554 1556 1557 1557 1556 1556 1555 1554 1553 1552 1552 1552 1551 1551 1550 1549 1548 1546 1546 1546 1546 1545 1543 1545 1545
1526 1528 1530 1532 1534 1536 1538 1540 1542 1545 1547 1549 1550 1552 1553 1555 1556 1556 1555 1554 1554 1552 1552 1552 1552 1551 1550 1549 1549 1549 1548 1547 1546 1544 1545 1545 1548 1549
1521 1523 1525 1526 1528 1531 1534 1536 1538 1541 1545 1547 1548 1549 1550 1552 1553 1554 1554 1553 1553 1552 1551 1551 1550 1549 1548 1549 1550 1549 1549 1547 1547 1546 1547 1548 1549 1551
1514 1516 1519 1521 1522 1526 1529 1531 1534 1538 1542 1545 1546 1547 1548 1549 1550 1551 1552 1552 1551 1550 1550 1549 1549 1548 1547 1548 1548 1549 1549 1548 1547 1547 1548 1551 1551 1552
1510 1512 1515 1516 1517 1520 1523 1526 1529 1534 1538 1541 1543 1544 1545 1545 1547 1548 1549 1550 1549 1549 1549 1548 1548 1547 1547 1547 1547 1548 1549 1549 1549 1548 1549 1550 1553 1554
1507 1508 1511 1513 1513 1515 1518 1522 1525 1528 1533 1537 1539 1540 1541 1541 1542 1545 1546 1546 1546 1547 1547 1546 1546 1546 1546 1547 1548 1548 1549 1549 1549 1549 1550 1552 1553 1555
1503 1505 1507 1509 1510 1512 1514 1518 1521 1523 1527 1530 1534 1536 1537 1538 1539 1542 1543 1542 1543 1545 1545 1545 1546 1544 1545 1547 1548 1548 1549 1550 1550 1551 1553 1553 1554 1556
1501 1502 1504 1505 1507 1510 1511 1513 1516 1519 1524 1527 1530 1532 1535 1536 1536 1538 1539 1540 1542 1542 1543 1544 1544 1544 1544 1546 1548 1548 1549 1550 1550 1552 1553 1553 1555 1557
1498 1500 1501 1503 1504 1505 1507 1509 1512 1516 1520 1523 1527 1530 1533 1534 1534 1536 1538 1540 1540 1540 1542 1543 1543 1543 1544 1545 1547 1548 1549 1549 1550 1551 1552 1553 1554 1555
1494 1496 1496 1498 1501 1501 1504 1506 1510 1512 1515 1518 1522 1526 1528 1530 1531 1532 1534 1536 1536 1538 1541 1541 1540 1541 1543 1544 1545 1545 1547 1548 1549 1550 1551 1552 1553 1553
1489 1492 1493 1495 1497 1498 1500 1503 1506 1508 1511 1514 1517 1520 1523 1524 1527 1529 1530 1532 1533 1536 1538 1539 1538 1540 1542 1542 1543 1543 1544 1545 1547 1548 1549 1550 1551 1553
1486 1488 1490 1491 1493 1494 1496 1498 1501 1505 1508 1510 1513 1514 1516 1519 1522 1525 1526 1528 1531 1534 1535 1535 1535 1538 1540 1540 1540 1540 1541 1542 1544 1546 1547 1548 1548 1549
1486 1487 1487 1488 1489 1491 1493 1495 1497 1500 1502 1505 1508 1508 1511 1514 1517 1520 1523 1526 1530 1533 1533 1533 1533 1536 1537 1537 1538 1539 1539 1540 1540 1541 1542 1543 1545 1546
1483 1483 1485 1485 1486 1488 1489 1491 1493 1495 1497 1499 1501 1503 1506 1509 1512 1517 1520 1523 1527 1529 1529 1530 1532 1534 1535 1536 1535 1536 1537 1537 1537 1538 1539 1540 1541 1542
1480 1481 1482 1482 1483 1484 1485 1486 1487 1489 1491 1493 1495 1497 1500 1503 1508 1512 1516 1519 1522 1524 1525 1527 1528 1530 1532 1533 1533 1533 1534 1535 1535 1535 1536 1537 1537 1538
1477 1477 1478 1480 1480 1481 1482 1483 1484 1485 1485 1487 1487 1489 1493 1498 1503 1509 1512 1515 1517 1519 1521 1524 1525 1525 1527 1529 1529 1529 1530 1530 1532 1533 1533 1532 1533 1533
1472 1473 1475 1476 1477 1479 1480 1480 1480 1480 1481 1481 1482 1485 1489 1494 1500 1505 1508 1510 1513 1515 1518 1520 1522 1521 1522 1523 1525 1524 1525 1525 1527 1527 1528 1528 1528 1530
1469 1470 1471 1473 1474 1475 1475 1475 1476 1477 1478 1477 1479 1483 1488 1494 1498 1501 1504 1506 1509 1511 1513 1515 1516 1516 1518 1517 1518 1519 1519 1519 1519 1520 1520 1521 1522 1525
1467 1468 1469 1470 1470 1471 1472 1471 1471 1473 1475 1476 1478 1482 1487 1491 1494 1496 1499 1502 1505 1507 1508 1508 1509 1510 1512 1513 1513 1514 1515 1513 1512 1512 1513 1514 1515 1517
1464 1465 1465 1466 1467 1467 1468 1467 1468 1469 1471 1473 1475 1478 1483 1486 1488 1491 1494 1498 1500 1502 1502 1502 1505 1507 1507 1507 1507 1507 1510 1509 1508 1508 1508 1508 1508 1509
1460 1460 1461 1462 1462 1463 1464 1464 1465 1466 1466 1468 1471 1474 1477 1481 1484 1487 1490 1493 1495 1495 1497 1499 1501 1501 1500 1501 1501 1503 1505 1506 1505 1505 1506 1506 1505 1504
1455 1456 1457 1457 1458 1458 1459 1460 1461 1462 1464 1465 1467 1470 1473 1476 1479 1482 1484 1487 1489 1491 1492 1494 1495 1495 1495 1495 1496 1497 1499 1500 1501 1501 1501 1501 1501 1501